CW3077 Weather Reports


time (UTC)temp
C
wind
direction
speed
KPH
gust
KPH
rain 1hr
cm
rain 24hr
cm
rain mn
cm
humidity
%
barometer
mb
20260506015037 26 158 3.2 11.3 0.00 0.00 0.00 79 1007.1
20260506014536 26 158 4.8 11.3 0.00 0.00 0.00 79 1007.1
20260506014016 26 180 4.8 12.9 0.00 0.00 0.00 79 1007.3
20260506013516 26 158 4.8 12.9 0.00 0.00 0.00 79 1007.1
20260506013016 26 158 4.8 12.9 0.00 0.00 0.00 79 1007.1
20260506012516 26 158 4.8 16.1 0.00 0.00 0.00 78 1007.0
20260506012016 26 158 3.2 11.3 0.00 0.00 0.00 78 1007.0
20260506011516 26 158 4.8 12.9 0.00 0.00 0.00 78 1007.0
20260506011017 26 158 4.8 16.1 0.00 0.00 0.00 78 1006.9
20260506010557 26 158 3.2 9.7 0.00 0.00 0.00 77 1007.0
20260506010017 26 135 3.2 14.5 0.00 0.00 0.00 77 1007.1
20260506005516 26 158 3.2 9.7 0.00 0.00 0.00 76 1007.1
20260506005016 26 158 4.8 11.3 0.00 0.00 0.00 76 1007.0
20260506004516 27 180 3.2 11.3 0.00 0.00 0.00 75 1007.2
20260506004016 27 180 3.2 11.3 0.00 0.00 0.00 74 1007.1
20260506003516 27 180 3.2 6.4 0.00 0.00 0.00 75 1007.1
20260506003016 27 158 3.2 11.3 0.00 0.00 0.00 74 1007.0
20260506002516 27 158 3.2 11.3 0.00 0.00 0.00 74 1007.1
20260506002016 27 158 3.2 14.5 0.00 0.00 0.00 74 1007.1
20260506001516 27 203 3.2 12.9 0.00 0.00 0.00 74 1007.2
20260506001036 27 180 3.2 11.3 0.00 0.00 0.00 74 1007.0
20260506000516 27 180 6.4 14.5 0.00 0.00 0.00 73 1007.2
20260506000016 27 158 4.8 11.3 0.00 0.00 0.00 73 1007.3
20260505235516 27 180 3.2 17.7 0.00 0.00 0.00 73 1007.3
20260505235016 27 203 4.8 14.5 0.00 0.00 0.00 72 1007.3
20260505234516 27 203 3.2 11.3 0.00 0.00 0.00 72 1006.9
20260505234016 27 158 4.8 12.9 0.00 0.00 0.00 72 1007.0
20260505233516 27 180 6.4 16.1 0.00 0.00 0.00 71 1006.9
20260505233036 27 203 8.0 19.3 0.00 0.00 0.00 71 1007.0
20260505232516 27 203 4.8 16.1 0.00 0.00 0.00 71 1006.9
20260505232016 27 158 6.4 16.1 0.00 0.00 0.00 71 1006.8
20260505231556 28 180 6.4 16.1 0.00 0.00 0.00 70 1006.8
20260505231016 28 180 6.4 16.1 0.00 0.00 0.00 71 1006.7
20260505230516 28 203 4.8 11.3 0.00 0.00 0.00 70 1006.7
20260505230016 27 203 6.4 16.1 0.00 0.00 0.00 70 1006.7
20260505225516 28 180 8.0 19.3 0.00 0.00 0.00 69 1006.6
20260505225016 28 180 6.4 20.9 0.00 0.00 0.00 69 1006.7
20260505224516 28 135 4.8 12.9 0.00 0.00 0.00 70 1006.7
20260505224036 28 158 6.4 19.3 0.00 0.00 0.00 69 1006.7
20260505223516 28 203 6.4 11.3 0.00 0.00 0.00 69 1006.6
20260505223016 28 203 6.4 16.1 0.00 0.00 0.00 69 1006.7
20260505222517 28 203 6.4 16.1 0.00 0.00 0.00 69 1006.7
20260505222016 28 158 8.0 20.9 0.00 0.00 0.00 69 1006.5
20260505221616 28 225 9.7 16.1 0.00 0.00 0.00 68 1006.6
20260505221016 28 203 9.7 19.3 0.00 0.00 0.00 68 1006.7
20260505220516 28 203 8.0 20.9 0.00 0.00 0.00 67 1006.7
20260505220016 28 158 6.4 17.7 0.00 0.00 0.00 69 1006.7
20260505215516 28 225 8.0 29.0 0.00 0.00 0.00 68 1006.8
20260505215016 28 203 8.0 20.9 0.00 0.00 0.00 68 1006.9
20260505214516 28 180 8.0 19.3 0.00 0.00 0.00 68 1006.9
20260505214036 28 158 4.8 17.7 0.00 0.00 0.00 70 1007.0
20260505213516 28 180 4.8 14.5 0.00 0.00 0.00 69 1007.1
20260505213016 28 203 6.4 16.1 0.00 0.00 0.00 68 1007.2
20260505212516 28 203 9.7 20.9 0.00 0.00 0.00 68 1007.1
20260505212016 28 135 8.0 24.1 0.00 0.00 0.00 67 1007.1
20260505211516 29 135 6.4 14.5 0.00 0.00 0.00 67 1007.3
20260505211016 28 180 6.4 19.3 0.00 0.00 0.00 69 1007.5
20260505210516 28 180 9.7 22.5 0.00 0.00 0.00 68 1007.5
20260505210036 28 158 8.0 22.5 0.00 0.00 0.00 68 1007.4
20260505205516 28 203 8.0 22.5 0.00 0.00 0.00 68 1007.4
20260505205015 29 158 9.7 22.5 0.00 0.00 0.00 69 1007.5
20260505204536 28 203 6.4 14.5 0.00 0.00 0.00 68 1007.5
20260505204016 28 158 9.7 19.3 0.00 0.00 0.00 67 1007.6
20260505203516 28 180 11.3 24.1 0.00 0.00 0.00 68 1007.7
20260505203016 28 158 9.7 24.1 0.00 0.00 0.00 67 1007.7
20260505202516 28 180 9.7 19.3 0.00 0.00 0.00 68 1007.8
20260505202016 28 203 9.7 24.1 0.00 0.00 0.00 69 1007.9
20260505201516 28 203 9.7 20.9 0.00 0.00 0.00 69 1008.0
20260505201015 28 203 9.7 24.1 0.00 0.00 0.00 69 1008.0
20260505200516 28 180 6.4 19.3 0.00 0.00 0.00 69 1008.1
20260505200016 28 180 8.0 17.7 0.00 0.00 0.00 68 1008.1
20260505195515 28 203 8.0 20.9 0.00 0.00 0.00 69 1008.0
20260505195016 29 180 9.7 24.1 0.00 0.00 0.00 66 1008.2
20260505194516 28 180 9.7 22.5 0.00 0.00 0.00 69 1008.3
20260505194015 28 158 6.4 20.9 0.00 0.00 0.00 69 1008.4
20260505193516 28 225 11.3 19.3 0.00 0.00 0.00 68 1008.5
20260505193036 28 158 6.4 20.9 0.00 0.00 0.00 70 1008.7
20260505192516 28 203 6.4 17.7 0.00 0.00 0.00 70 1008.5
20260505192036 28 158 8.0 20.9 0.00 0.00 0.00 68 1008.6
20260505191516 28 203 6.4 16.1 0.00 0.00 0.00 70 1008.7
20260505191036 28 203 8.0 19.3 0.00 0.00 0.00 70 1008.8
20260505190536 27 180 9.7 19.3 0.00 0.00 0.00 70 1008.9
20260505190016 27 248 4.8 11.3 0.00 0.00 0.00 73 1008.8
20260505185516 27 225 8.0 17.7 0.00 0.00 0.00 71 1008.8
20260505185015 28 225 6.4 17.7 0.00 0.00 0.00 70 1008.9
20260505184535 28 225 9.7 20.9 0.00 0.00 0.00 70 1009.1
20260505184016 27 158 8.0 20.9 0.00 0.00 0.00 70 1009.2
20260505183515 26 225 6.4 20.9 0.00 0.00 0.00 73 1009.3
20260505183015 27 248 6.4 16.1 0.00 0.00 0.00 72 1009.5
20260505182515 27 203 11.3 25.7 0.00 0.00 0.00 70 1009.5
20260505182015 27 180 8.0 20.9 0.00 0.00 0.00 73 1009.4
20260505181515 27 203 8.0 20.9 0.00 0.00 0.00 75 1009.5
20260505181016 26 225 9.7 24.1 0.00 0.00 0.00 74 1009.6
20260505180516 26 225 6.4 17.7 0.00 0.00 0.00 76 1009.5
20260505180015 25 225 8.0 17.7 0.00 0.00 0.00 78 1009.5
20260505175516 25 248 8.0 20.9 0.00 0.00 0.00 77 1009.7
20260505175035 25 225 3.2 14.5 0.00 0.00 0.00 78 1009.7
20260505174536 25 248 8.0 25.7 0.00 0.00 0.00 78 1009.6
20260505174035 25 225 6.4 17.7 0.00 0.00 0.00 79 1009.6
20260505173516 25 225 4.8 19.3 0.00 0.00 0.00 80 1009.7
20260505173016 24 248 6.4 19.3 0.00 0.00 0.00 81 1009.6
20260505172515 24 225 8.0 14.5 0.00 0.00 0.00 81 1009.6
20260505172015 24 225 8.0 20.9 0.00 0.00 0.00 81 1009.7
20260505171515 23 225 8.0 20.9 0.00 0.00 0.00 82 1009.7
20260505171015 23 203 6.4 19.3 0.00 0.00 0.00 82 1009.6
20260505170515 23 203 6.4 17.7 0.00 0.00 0.00 83 1009.8
20260505170015 23 225 6.4 24.1 0.00 0.00 0.00 83 1009.7
20260505165535 23 203 4.8 12.9 0.00 0.00 0.00 84 1009.7
20260505165016 23 225 6.4 17.7 0.00 0.00 0.00 83 1009.7
20260505164515 23 225 8.0 17.7 0.00 0.00 0.00 84 1009.7
20260505164015 23 248 6.4 17.7 0.00 0.00 0.00 84 1009.6
20260505163515 23 225 8.0 22.5 0.00 0.00 0.00 84 1009.7
20260505163015 23 225 6.4 14.5 0.00 0.00 0.00 84 1009.6
20260505162535 22 225 4.8 11.3 0.00 0.00 0.00 85 1009.7
20260505162036 22 225 4.8 17.7 0.00 0.00 0.00 85 1009.7
20260505161516 22 225 6.4 17.7 0.00 0.00 0.00 85 1009.7
20260505161015 22 225 8.0 19.3 0.00 0.00 0.00 85 1009.6
20260505160535 22 203 6.4 14.5 0.00 0.00 0.00 86 1009.6
20260505153015 22 225 4.8 17.7 0.00 0.00 0.00 86 1009.8
20260505152535 22 225 4.8 19.3 0.00 0.00 0.00 86 1009.8
20260505152015 22 248 9.7 17.7 0.00 0.00 0.00 86 1009.8
20260505151535 22 248 6.4 17.7 0.00 0.00 0.00 86 1009.7
20260505151015 22 248 4.8 16.1 0.00 0.00 0.00 86 1009.7
20260505150515 22 248 8.0 17.7 0.00 0.00 0.00 86 1009.7
20260505140515 21 180 4.8 16.1 0.00 0.00 0.00 88 1009.2
20260505125017 21 225 8.0 17.7 0.00 0.00 0.00 88 1008.6
20260505124537 21 203 6.4 17.7 0.00 0.00 0.00 88 1008.6
20260505124037 21 225 8.0 24.1 0.00 0.00 0.00 88 1008.6
20260505123517 21 225 4.8 16.1 0.00 0.00 0.00 88 1008.5
20260505123017 21 225 6.4 22.5 0.00 0.00 0.00 86 1008.3
20260505122537 21 203 8.0 19.3 0.00 0.00 0.00 86 1008.2
20260505122017 21 203 8.0 17.7 0.00 0.00 0.00 86 1008.2
20260505121517 21 203 6.4 17.7 0.00 0.00 0.00 86 1008.1
20260505121017 21 203 4.8 24.1 0.00 0.00 0.00 86 1008.1
20260505120517 21 225 6.4 20.9 0.00 0.00 0.00 86 1008.1
20260505120016 21 225 4.8 14.5 0.00 0.00 0.00 86 1008.0
20260505115517 21 225 6.4 19.3 0.00 0.00 0.00 86 1007.8
20260505115017 21 203 8.0 17.7 0.00 0.00 0.00 86 1007.9
20260505114517 21 203 6.4 24.1 0.00 0.00 0.00 86 1007.9
20260505114017 21 225 6.4 16.1 0.00 0.00 0.00 86 1007.9
20260505113517 21 225 8.0 19.3 0.00 0.00 0.00 86 1007.9
20260505113015 21 203 6.4 17.7 0.00 0.00 0.00 86 1008.0
20260505112517 21 203 6.4 20.9 0.00 0.00 0.00 86 1007.9
20260505112017 21 203 9.7 20.9 0.00 0.00 0.00 86 1008.0
20260505111517 21 225 9.7 27.4 0.00 0.00 0.00 86 1007.9
20260505111037 21 203 9.7 17.7 0.00 0.00 0.00 86 1008.0
20260505110536 21 225 8.0 24.1 0.00 0.00 0.00 88 1008.0
20260505102017 21 203 4.8 16.1 0.00 0.00 0.00 86 1008.3
20260505101537 21 203 6.4 19.3 0.00 0.00 0.00 86 1008.3
20260505101016 21 203 4.8 14.5 0.00 0.00 0.00 86 1008.6
20260505100516 21 203 4.8 12.9 0.00 0.00 0.00 86 1008.5
20260505100016 21 158 3.2 14.5 0.00 0.00 0.00 86 1008.7
20260505095516 21 158 4.8 12.9 0.00 0.00 0.00 86 1008.5
20260505095016 21 203 4.8 16.1 0.00 0.00 0.00 86 1008.3
20260505094516 21 180 3.2 16.1 0.00 0.00 0.00 86 1008.4
20260505094016 21 225 6.4 16.1 0.00 0.00 0.00 86 1008.5
20260505093517 21 203 4.8 22.5 0.00 0.00 0.00 86 1008.7
20260505093017 21 203 3.2 16.1 0.00 0.00 0.00 86 1008.7
20260505092536 21 203 4.8 14.5 0.00 0.00 0.00 86 1008.7
20260505092017 21 203 4.8 16.1 0.00 0.00 0.00 86 1008.6
20260505091516 21 180 4.8 24.1 0.00 0.00 0.00 86 1008.6
20260505091036 21 203 6.4 25.7 0.00 0.00 0.00 86 1008.8
20260505090516 21 225 8.0 22.5 0.00 0.00 0.00 86 1008.9
20260505090017 21 203 8.0 25.7 0.00 0.00 0.00 86 1008.7
20260505085516 21 203 6.4 24.1 0.00 0.00 0.00 86 1008.7
20260505085056 21 203 8.0 22.5 0.00 0.00 0.00 86 1008.8
20260505084516 21 225 6.4 19.3 0.00 0.00 0.00 86 1009.0
20260505084016 21 180 4.8 17.7 0.00 0.00 0.00 86 1008.9
20260505083516 21 180 4.8 17.7 0.00 0.00 0.00 86 1008.8
20260505083037 21 180 6.4 17.7 0.00 0.00 0.00 86 1008.9
20260505082516 21 203 6.4 19.3 0.00 0.00 0.00 86 1008.9
20260505082016 21 203 6.4 17.7 0.00 0.00 0.00 86 1009.2
20260505081516 21 203 6.4 19.3 0.00 0.00 0.00 86 1009.3
20260505081016 21 225 6.4 19.3 0.00 0.00 0.00 86 1009.2
20260505080516 21 225 6.4 19.3 0.00 0.00 0.00 86 1009.2
20260505080016 21 203 4.8 14.5 0.00 0.00 0.00 86 1009.0
20260505075516 21 203 9.7 19.3 0.00 0.00 0.00 86 1009.0
20260505075016 21 180 6.4 22.5 0.00 0.00 0.00 86 1009.1
20260505074517 21 203 6.4 17.7 0.00 0.00 0.00 86 1009.4
20260505074016 21 225 6.4 19.3 0.00 0.00 0.00 86 1009.3
20260505073516 21 225 8.0 27.4 0.00 0.00 0.00 85 1009.2
20260505073016 21 203 8.0 14.5 0.00 0.00 0.00 85 1009.4
20260505072517 21 180 8.0 24.1 0.00 0.00 0.00 85 1009.3
20260505072016 21 203 8.0 22.5 0.00 0.00 0.00 85 1009.4
20260505071517 21 203 9.7 22.5 0.00 0.00 0.00 85 1009.8
20260505071016 21 203 8.0 19.3 0.00 0.00 0.00 85 1009.8
20260505070516 21 203 8.0 20.9 0.00 0.00 0.00 85 1009.7
20260505070016 21 203 9.7 22.5 0.00 0.00 0.00 85 1009.8
20260505065516 21 225 6.4 17.7 0.00 0.00 0.00 85 1010.0
20260505065016 21 225 9.7 27.4 0.00 0.00 0.00 85 1010.0
20260505064516 21 203 8.0 27.4 0.00 0.00 0.00 85 1009.9
20260505064016 21 203 8.0 19.3 0.00 0.00 0.00 85 1009.9
20260505063516 21 203 9.7 22.5 0.00 0.00 0.00 84 1010.0
20260505063016 21 203 9.7 22.5 0.00 0.00 0.00 84 1010.2
20260505062516 21 203 9.7 20.9 0.00 0.00 0.00 84 1010.3
20260505062016 21 180 8.0 24.1 0.00 0.00 0.00 84 1010.2
20260505061516 21 180 8.0 25.7 0.00 0.00 0.00 84 1010.2
20260505061056 21 180 4.8 17.7 0.00 0.00 0.00 84 1010.3
20260505060516 21 203 6.4 22.5 0.00 0.00 0.00 84 1010.3
20260505060036 21 203 4.8 14.5 0.00 0.00 0.00 84 1010.4
20260505055516 21 135 4.8 14.5 0.00 0.00 0.00 84 1010.1
20260505055016 21 158 3.2 12.9 0.00 0.00 0.00 84 1010.3
20260505054516 21 180 8.0 19.3 0.00 0.00 0.00 84 1010.3
20260505054016 21 203 4.8 17.7 0.00 0.00 0.00 84 1010.1
20260505053516 21 203 4.8 12.9 0.00 0.00 0.00 84 1010.0
20260505053016 21 203 6.4 22.5 0.00 0.00 0.00 84 1010.0
20260505052516 21 203 6.4 16.1 0.00 0.00 0.00 84 1010.1
20260505052036 21 203 8.0 20.9 0.00 0.00 0.00 84 1010.0
20260505051536 21 225 4.8 16.1 0.00 0.00 0.00 84 1010.1
20260505051016 21 158 8.0 17.7 0.00 0.00 0.00 84 1010.0
20260505050516 21 180 4.8 17.7 0.00 0.00 0.00 84 1009.9
20260505041516 22 180 8.0 25.7 0.00 0.00 0.00 82 1009.9
20260505041017 22 180 8.0 37.0 0.00 0.00 0.00 81 1010.0
20260505040537 22 180 9.7 35.4 0.00 0.00 0.00 81 1009.9
20260505040016 22 180 9.7 19.3 0.00 0.00 0.00 81 1009.8
20260505035517 22 180 9.7 25.7 0.00 0.00 0.00 81 1009.9
20260505035016 22 180 9.7 20.9 0.00 0.00 0.00 81 1010.1
20260505034517 22 203 6.4 16.1 0.00 0.00 0.00 80 1010.0
20260505034016 22 203 6.4 14.5 0.00 0.00 0.00 80 1010.0
20260505033516 22 180 8.0 19.3 0.00 0.00 0.00 80 1010.1
20260505033016 22 203 8.0 22.5 0.00 0.00 0.00 79 1010.0
20260505032517 22 180 8.0 17.7 0.00 0.00 0.00 79 1010.0
20260505032016 22 158 6.4 29.0 0.00 0.00 0.00 79 1009.9
20260505031537 22 203 6.4 19.3 0.00 0.00 0.00 79 1009.8
20260505031016 23 180 6.4 17.7 0.00 0.00 0.00 78 1009.8
20260505030516 23 203 4.8 14.5 0.00 0.00 0.00 78 1010.0
20260505030017 23 180 6.4 19.3 0.00 0.00 0.00 78 1010.1
20260505025516 23 203 6.4 16.1 0.00 0.00 0.00 77 1010.0
20260505025016 23 158 6.4 16.1 0.00 0.00 0.00 77 1009.9
20260505024517 23 180 6.4 16.1 0.00 0.00 0.00 76 1010.0
20260505024017 23 158 6.4 16.1 0.00 0.00 0.00 76 1009.8
20260505023516 23 203 8.0 19.3 0.00 0.00 0.00 75 1010.1
20260505023016 23 203 6.4 17.7 0.00 0.00 0.00 75 1009.9
20260505022517 23 158 6.4 16.1 0.00 0.00 0.00 74 1009.9
20260505022058 23 158 6.4 19.3 0.00 0.00 0.00 74 1009.9
20260505021516 23 203 6.4 14.5 0.00 0.00 0.00 74 1009.8
20260505021016 23 180 6.4 17.7 0.00 0.00 0.00 73 1009.7
20260505020537 23 203 4.8 17.7 0.00 0.00 0.00 73 1009.6
20260505020017 23 203 8.0 19.3 0.00 0.00 0.00 72 1009.7
20260505015516 23 180 6.4 17.7 0.00 0.00 0.00 71 1009.7